TimeCDT,TemperatureF,Dew PointF,Humidity,Sea Level PressureIn,VisibilityMPH,Wind Direction,Wind SpeedMPH,Gust SpeedMPH,PrecipitationIn,Events,Conditions,WindDirDegrees,DateUTC
12:53 AM,60.1,57.9,93,30.01,10.0,WNW,3.5,-,N/A,,Clear,290,2012-11-01 05:53:00
1:53 AM,60.1,57.9,93,30.01,10.0,WSW,4.6,-,N/A,,Clear,250,2012-11-01 06:53:00
2:53 AM,57.9,57.0,97,30.02,9.0,Calm,Calm,-,N/A,,Clear,0,2012-11-01 07:53:00
3:53 AM,55.9,55.0,97,30.02,5.0,Calm,Calm,-,N/A,,Clear,0,2012-11-01 08:53:00
4:53 AM,54.0,53.1,97,30.01,7.0,Calm,Calm,-,N/A,,Clear,0,2012-11-01 09:53:00
5:51 AM,55.4,53.6,94,30.02,1.2,Calm,Calm,-,N/A,,Clear,0,2012-11-01 10:51:00
5:53 AM,54.0,54.0,100,30.02,0.8,Calm,Calm,-,N/A,,Clear,0,2012-11-01 10:53:00
6:03 AM,53.6,53.6,100,30.03,10.0,Calm,Calm,-,N/A,,Clear,0,2012-11-01 11:03:00
6:53 AM,53.1,52.0,96,30.03,7.0,Calm,Calm,-,N/A,,Clear,0,2012-11-01 11:53:00
7:18 AM,51.8,51.8,100,30.04,0.8,Calm,Calm,-,N/A,,Mist,0,2012-11-01 12:18:00
7:31 AM,51.8,51.8,100,30.05,0.2,Calm,Calm,-,N/A,Fog,Fog,0,2012-11-01 12:31:00
7:53 AM,52.0,52.0,100,30.05,0.5,Calm,Calm,-,N/A,Fog,Fog,0,2012-11-01 12:53:00
8:04 AM,53.6,53.6,100,30.06,0.8,Calm,Calm,-,N/A,,Mist,0,2012-11-01 13:04:00
8:10 AM,53.6,53.6,100,30.06,2.0,Calm,Calm,-,N/A,,Mostly Cloudy,0,2012-11-01 13:10:00
8:16 AM,55.4,55.4,100,30.06,3.0,Calm,Calm,-,N/A,,Clear,0,2012-11-01 13:16:00
8:53 AM,57.9,55.9,93,30.07,10.0,ENE,5.8,-,N/A,,Clear,60,2012-11-01 13:53:00
9:53 AM,66.0,55.9,70,30.09,10.0,ENE,4.6,-,N/A,,Clear,70,2012-11-01 14:53:00
10:53 AM,70.0,55.9,61,30.09,10.0,NE,3.5,-,N/A,,Clear,50,2012-11-01 15:53:00
11:53 AM,73.0,55.9,55,30.08,10.0,Calm,Calm,-,N/A,,Clear,0,2012-11-01 16:53:00
12:53 PM,77.0,57.0,50,30.05,10.0,Calm,Calm,-,N/A,,Clear,0,2012-11-01 17:53:00
1:53 PM,79.0,55.9,45,30.02,10.0,Variable,3.5,-,N/A,,Clear,0,2012-11-01 18:53:00
2:53 PM,80.1,52.0,38,30.00,10.0,West,6.9,-,N/A,,Clear,280,2012-11-01 19:53:00
3:53 PM,80.1,54.0,40,29.99,10.0,Variable,3.5,-,N/A,,Clear,0,2012-11-01 20:53:00
4:53 PM,79.0,54.0,42,29.98,10.0,SW,4.6,-,N/A,,Clear,230,2012-11-01 21:53:00
5:53 PM,75.0,55.9,51,29.98,10.0,Calm,Calm,-,N/A,,Clear,0,2012-11-01 22:53:00
6:53 PM,68.0,57.9,70,30.00,10.0,Calm,Calm,-,N/A,,Clear,0,2012-11-01 23:53:00
7:53 PM,64.0,57.9,80,30.01,10.0,Calm,Calm,-,N/A,,Clear,0,2012-11-02 00:53:00
8:53 PM,63.0,57.0,81,30.02,10.0,Calm,Calm,-,N/A,,Clear,0,2012-11-02 01:53:00
9:53 PM,64.0,57.9,80,30.03,10.0,ESE,4.6,-,N/A,,Clear,120,2012-11-02 02:53:00
10:53 PM,62.1,57.9,86,30.02,10.0,Calm,Calm,-,N/A,,Clear,0,2012-11-02 03:53:00
11:53 PM,60.1,57.0,90,30.02,9.0,Calm,Calm,-,N/A,,Clear,0,2012-11-02 04:53:00